Location: Ferintosh
(52.7647°N, 112.9692°W)
Time: 13:40:49
(UTC+00:00)

S-56A Canister/Altair - Pass Details

Date: 30 May 2024
Orbit: 637 x 2489 km, 38.9° (Epoch: 20 June)

Event Time Altitude Azimuth Distance (km) Brightness Sun altitude
Rises 08:28:01 0° 173° (S) 6,105 - -14.3°
Exits shadow 08:32:16 - 161° (SSE) 5,542 11.4 -14.1°
Reaches altitude 10° 08:36:43 10° 146° (SE) 5,128 11.3 -13.9°
Maximum altitude 08:40:16 11° 131° (SE) 4,972 11.4 -13.8°
Drops below altitude 10° 08:43:43 10° 117° (ESE) 4,993 11.6 -13.6°
Sets 08:51:38 0° 89° (E) 5,673 12.2 -13.3°
